TimeCST,TemperatureF,Dew PointF,Humidity,Sea Level PressureIn,VisibilityMPH,Wind Direction,Wind SpeedMPH,Gust SpeedMPH,PrecipitationIn,Events,Conditions,WindDirDegrees,DateUTC
12:15 AM,12.0,7.9,83,30.01,7.0,South,4.6,-,N/A,Snow,Light Snow,170,2013-02-03 06:15:00
12:35 AM,13.6,9.5,84,30.00,7.0,South,4.6,-,N/A,Snow,Light Snow,180,2013-02-03 06:35:00
12:55 AM,13.6,9.5,84,29.99,5.0,South,4.6,-,N/A,Snow,Light Snow,180,2013-02-03 06:55:00
1:15 AM,13.6,9.5,84,29.99,4.0,South,4.6,-,N/A,Snow,Light Snow,170,2013-02-03 07:15:00
1:35 AM,13.6,9.9,85,29.99,3.0,South,4.6,-,N/A,Snow,Light Snow,180,2013-02-03 07:35:00
1:55 AM,13.6,10.0,86,29.98,3.0,South,4.6,-,N/A,Snow,Light Snow,180,2013-02-03 07:55:00
2:35 AM,13.6,10.0,86,29.97,4.0,Calm,Calm,-,N/A,Snow,Light Snow,0,2013-02-03 08:35:00
2:55 AM,13.6,10.2,86,29.96,7.0,South,3.5,-,N/A,Snow,Light Snow,180,2013-02-03 08:55:00
3:15 AM,13.6,10.2,86,29.96,10.0,South,3.5,-,N/A,Snow,Light Snow,180,2013-02-03 09:15:00
3:35 AM,13.6,10.2,86,29.95,10.0,South,4.6,-,N/A,,Overcast,170,2013-02-03 09:35:00
3:55 AM,14.0,10.4,86,29.95,10.0,SSE,4.6,-,N/A,,Overcast,160,2013-02-03 09:55:00
4:15 AM,13.6,10.2,86,29.95,10.0,Calm,Calm,-,N/A,,Overcast,0,2013-02-03 10:15:00
4:35 AM,13.6,10.2,86,29.95,10.0,Calm,Calm,-,N/A,,Overcast,0,2013-02-03 10:35:00
4:55 AM,13.8,10.4,86,29.96,10.0,Calm,Calm,-,N/A,,Overcast,0,2013-02-03 10:55:00
5:15 AM,14.0,10.9,88,29.96,4.0,SSW,5.8,-,N/A,Snow,Light Snow,210,2013-02-03 11:15:00
6:15 AM,15.6,13.1,90,29.96,3.0,SW,4.6,-,N/A,Snow,Light Snow,230,2013-02-03 12:15:00
6:35 AM,16.0,13.6,90,29.96,3.0,WSW,4.6,-,N/A,Snow,Light Snow,240,2013-02-03 12:35:00
6:55 AM,16.2,13.5,89,29.97,3.0,WSW,5.8,-,N/A,Snow,Light Snow,250,2013-02-03 12:55:00
7:15 AM,16.2,13.5,89,29.97,5.0,WSW,6.9,-,N/A,Snow,Light Snow,250,2013-02-03 13:15:00
7:35 AM,16.2,13.5,89,29.98,5.0,WSW,9.2,-,N/A,Snow,Light Snow,250,2013-02-03 13:35:00
7:55 AM,15.8,14.0,93,29.99,5.0,West,6.9,-,N/A,Snow,Light Snow,260,2013-02-03 13:55:00
8:15 AM,16.3,13.5,88,29.99,7.0,West,12.7,16.1,N/A,Snow,Light Snow,270,2013-02-03 14:15:00
8:35 AM,18.5,14.9,86,30.00,5.0,West,13.8,20.7,N/A,Snow,Light Snow,270,2013-02-03 14:35:00
8:55 AM,18.5,14.5,85,30.01,5.0,West,15.0,20.7,N/A,Snow,Light Snow,280,2013-02-03 14:55:00
9:15 AM,18.5,14.2,83,30.01,4.0,West,16.1,25.3,N/A,Snow,Light Snow,280,2013-02-03 15:15:00
9:35 AM,18.5,14.0,83,30.01,7.0,WNW,16.1,23.0,N/A,,Overcast,290,2013-02-03 15:35:00
9:55 AM,18.5,13.6,81,30.01,5.0,West,15.0,-,N/A,Snow,Light Snow,280,2013-02-03 15:55:00
10:15 AM,18.5,13.5,81,30.01,7.0,West,16.1,21.9,N/A,,Scattered Clouds,280,2013-02-03 16:15:00
10:55 AM,18.5,12.2,76,30.04,7.0,West,18.4,25.3,N/A,,Mostly Cloudy,270,2013-02-03 16:55:00
11:15 AM,18.5,12.0,76,30.03,10.0,WNW,15.0,18.4,N/A,,Scattered Clouds,290,2013-02-03 17:15:00
11:35 AM,18.5,11.1,73,30.04,10.0,West,18.4,25.3,N/A,,Clear,280,2013-02-03 17:35:00
11:55 AM,18.5,11.3,73,30.04,10.0,West,16.1,24.2,N/A,,Clear,270,2013-02-03 17:55:00
12:15 PM,18.5,10.6,71,30.04,10.0,West,13.8,18.4,N/A,,Clear,260,2013-02-03 18:15:00
12:35 PM,18.5,9.9,69,30.05,10.0,West,15.0,18.4,N/A,,Clear,270,2013-02-03 18:35:00
12:55 PM,19.0,10.4,69,30.05,10.0,West,10.4,-,N/A,,Clear,260,2013-02-03 18:55:00
1:15 PM,19.9,10.8,68,30.05,10.0,West,15.0,-,N/A,,Clear,270,2013-02-03 19:15:00
1:35 PM,20.8,11.3,67,30.04,10.0,West,13.8,-,N/A,,Clear,260,2013-02-03 19:35:00
1:55 PM,21.2,12.2,68,30.03,10.0,West,10.4,-,N/A,,Clear,270,2013-02-03 19:55:00
2:15 PM,21.2,11.7,67,30.03,10.0,WSW,11.5,-,N/A,,Mostly Cloudy,250,2013-02-03 20:15:00
2:35 PM,21.2,12.0,68,30.04,10.0,WSW,15.0,19.6,N/A,,Overcast,240,2013-02-03 20:35:00
2:55 PM,21.2,12.2,68,30.04,10.0,SW,15.0,19.6,N/A,,Overcast,230,2013-02-03 20:55:00
3:15 PM,21.2,11.8,67,30.03,10.0,WSW,11.5,-,N/A,,Overcast,250,2013-02-03 21:15:00
3:35 PM,21.0,11.3,66,30.03,10.0,WSW,10.4,17.3,N/A,,Overcast,250,2013-02-03 21:35:00
3:55 PM,19.9,10.4,67,30.03,10.0,WSW,5.8,-,N/A,,Scattered Clouds,240,2013-02-03 21:55:00
4:15 PM,19.2,11.1,71,30.03,10.0,SW,9.2,-,N/A,,Scattered Clouds,230,2013-02-03 22:15:00
4:35 PM,19.4,12.0,73,30.02,10.0,WSW,6.9,-,N/A,,Overcast,240,2013-02-03 22:35:00
4:55 PM,19.9,12.4,72,30.03,10.0,SW,6.9,-,N/A,,Overcast,230,2013-02-03 22:55:00
5:15 PM,19.9,12.2,72,30.02,10.0,WSW,6.9,-,N/A,,Overcast,240,2013-02-03 23:15:00
5:35 PM,19.9,12.2,72,30.02,10.0,WSW,4.6,-,N/A,,Overcast,240,2013-02-03 23:35:00
5:55 PM,21.2,13.8,73,30.02,10.0,WSW,4.6,-,N/A,,Overcast,240,2013-02-03 23:55:00
6:15 PM,21.2,13.6,73,30.03,10.0,WSW,6.9,-,N/A,,Overcast,250,2013-02-04 00:15:00
6:35 PM,21.2,13.8,73,30.03,10.0,WSW,5.8,-,N/A,,Overcast,240,2013-02-04 00:35:00
6:55 PM,21.2,13.5,72,30.03,10.0,WSW,5.8,-,N/A,,Overcast,250,2013-02-04 00:55:00
7:15 PM,21.2,13.6,73,30.02,10.0,WSW,6.9,-,N/A,,Overcast,250,2013-02-04 01:15:00
7:35 PM,21.2,14.4,75,30.03,10.0,SW,3.5,-,N/A,,Overcast,220,2013-02-04 01:35:00
7:55 PM,21.2,14.5,75,30.04,10.0,WSW,4.6,-,N/A,,Overcast,240,2013-02-04 01:55:00
8:15 PM,21.2,14.4,75,30.04,10.0,SW,4.6,-,N/A,,Overcast,230,2013-02-04 02:15:00
8:35 PM,21.2,14.9,77,30.04,7.0,WSW,4.6,-,N/A,Snow,Light Snow,240,2013-02-04 02:35:00
8:55 PM,21.2,16.7,83,30.05,3.0,SW,3.5,-,N/A,Snow,Light Snow,230,2013-02-04 02:55:00
9:15 PM,21.2,17.6,86,30.05,1.8,SW,4.6,-,N/A,Snow,Light Snow,230,2013-02-04 03:15:00
9:35 PM,21.2,18.1,88,30.05,1.8,Calm,Calm,-,N/A,Snow,Light Snow,0,2013-02-04 03:35:00
9:55 PM,21.2,18.1,88,30.05,2.0,Calm,Calm,-,N/A,Snow,Light Snow,0,2013-02-04 03:55:00
10:15 PM,21.2,18.3,89,30.04,1.8,Calm,Calm,-,N/A,Snow,Light Snow,0,2013-02-04 04:15:00
10:35 PM,21.2,18.3,89,30.03,2.0,Calm,Calm,-,N/A,Snow,Light Snow,0,2013-02-04 04:35:00
10:55 PM,21.2,18.5,89,30.02,3.0,Calm,Calm,-,N/A,Snow,Light Snow,0,2013-02-04 04:55:00
11:15 PM,21.2,18.5,89,30.01,3.0,Calm,Calm,-,N/A,Snow,Light Snow,0,2013-02-04 05:15:00
11:35 PM,21.2,18.5,89,29.99,3.0,Calm,Calm,-,N/A,Snow,Light Snow,0,2013-02-04 05:35:00
11:55 PM,21.2,18.5,89,29.98,2.5,East,3.5,-,N/A,Snow,Light Snow,90,2013-02-04 05:55:00